Torna al catalogo

SHIYAN-33

AttivoMilitareSSO
NORAD 68405·PAYLOAD·🇨🇳 China

Lanciato Mar 27, 2026 da Jiuquan Satellite Launch Center

Loading…

Prossimi Passaggi (prossime 24 ore)

TLE

AggiornatoSource: Space-Track

Epoca: Sep 14, 2026, 18:22 UTC

1 68405U 26064A   26257.76589938  .00004057  00000-0  15965-3 0  9993
2 68405  97.4546 332.9308 0025418 349.2964  10.7730 15.25930074 26142

Traccia SHIYAN-33 in tempo reale con AllMySat

Download on the App Store